Probability
0 0 0 3 0 0 0 0 0 0 0 0 0 0 0 0 0 0 0 0 0 0 0 0 0 0 0 0 0 0 0 0 0 0 0 0 0 0 0 0 0 0 0
3 0 0 0 0 0 0 0 0 0 0 0 0 0 0 0 0 0 0 0 0 0 0 0 0 0 0 0 0 0 0 0 0 0 0 0 0 0 0 0 0 0 0
3 0 0 0 0 0 0 0 0 0 0 0 0 0 0 0 0 0 0 0 0 0 0 0 0 0 0 0 0 0 0 0 0 0 0 0 0 0 0 0 0 0 0
0 0 0 0 0 0 0 0 0 0 0 0 0 0 0 0 0 0 0 0 0 0 0 0 0 0 0 0 0 0 0 0 0 0 0 0 0 0 0 0 0 0 0
0 0 0 0 0 0 0 0 0 0 0 0 0 0 0 0 0 0 0 0 0 0 0 0 0 0 0 0 0 0 0 0 0 0 0 0 0 0 0 0 0 0 0
0 0 0 0 0 0 0 0 0 0 0 0 0 0 0 0 0 0 0 0 0 0 0 0 0 0 0 0 0 0 0 0 0 0 0 0 0 0 0 0 0 0 0
0 0 0 0 0 0 0 0 0 0 0 0 0 0 0 0 0 0 0 0 0 0 0 0 0 0 0 0 0 0 0 0 0 0 0 0 0 0 0 0 0 0 0
0 0 0 0 0 0 0 0 0 0 0 0 0 0 0 0 0 0 0 0 0 0 0 0 0 0 0 0 0 0 0 0 0 0 0 0 0 0 0 0 0 0 0
0 0 0 0 0 0 0 0 0 0 0 0 0 0 0 0 0 0 0 0 0 0 0 0 0 0 0 0 0 0 0 0 0 0 0 0 0 0 0 0 0 0 0
0 0 0 0 0 0 0 0 0 0 0 0 0 0 0 0 0 0 0 0 0 0 0 0 0 0 0 0 0 0 0 0 0 0 0 0 0 0 0 0 0 0 0
0 0 0 0 0 0 0 0 0 0 0 0 0 0 0 0 0 0 0 0 0 0 0 0 0 0 0 0 0 0 0 0 0 0 0 0 0 0 0 0 0 0 0
0 0 0 0 0 0 0 0 0 0 0 0 0 0 0 0 0 0 0 0 0 0 0 0 0 0 0 0 0 0 0 0 0 0 0 0 0 0 0 0 0 0 0
0 0 0 0 0 0 0 0 0 0 0 0 0 0 0 0 0 0 0 0 0 0 0 0 0 0 0 0 0 0 0 0 0 0 0 0 0 0 0 0 0 0 0
0 0 0 0 0 0 0 0 0 0 0 0 0 0 0 0 0 0 0 0 0 0 0 0 0 0 0 0 0 0 0 0 0 0 0 0 0 0 0 0 0 0 0
0 0 0 0 0 0 0 0 0 0 0 0 0 0 0 0 0 0 0 0 0 0 0 0 0 0 0 0 0 0 0 0 0 0 0 0 0 0 0 0 0 0 0
0 0 0 0 0 0 0 0 0 0 0 0 0 0 0 0 0 0 0 0 0 0 0 0 0 0 0 0 0 0 0 0 0 0 0 0 0 0 0 0 0 0 0
0 0 0 0 0 0 0 0 0 0 0 0 0 0 0 0 0 0 0 0 0 0 0 0 0 0 0 0 0 0 0 0 0 0 0 0 0 0 0 0 0 0 0
0 0 0 0 0 0 0 0 0 0 0 0 0 0 0 0 0 0 0 0 0 0 0 0 0 0 0 0 0 0 0 0 0 0 0 0 0 0 0 0 0 0 0
0 0 0 0 0 0 0 0 0 0 0 0 0 0 0 0 0 0 0 0 0 0 0 0 0 0 0 0 0 0 0 0 0 0 0 0 0 0 0 0 0 0 0
0 0 0 0 0 0 0 0 0 0 0 0 0 0 0 0 0 0 0 0 0 0 0 0 0 0 0 0 0 0 0 0 0 0 0 0 0 0 0 0 0 0 0
0 0 0 0 0 0 0 0 0 0 0 0 0 0 0 0 0 0 0 0 0 0 0 0 0 0 0 0 0 0 0 0 0 0 0 0 0 0 0 0 0 0 0
0 0 0 0 0 0 0 0 0 0 0 0 0 0 0 0 0 0 0 0 0 0 0 0 0 0 0 0 0 0 0 0 0 0 0 0 0 0 0 0 0 0 0
0 0 0 0 0 0 0 0 0 0 0 0 0 0 0 0 0 0 0 0 0 0 0 0 0 0 0 0 0 0 0 0 0 0 0 0 0 0 0 0 0 0 0
0 0 0 0 0 0 0 0 0 0 0 0 0 0 0 0 0 0 0 0 0 0 0 0 0 0 0 0 0 0 0 0 0 0 0 0 0 0 0 0 0 0 0
0 0 0 0 0 0 0 0 0 0 0 0 0 0 0 0 0 0 0 0 0 0 0 0 0 0 0 0 0 0 0 0 0 0 0 0 0 0 0 0 0 0 0
0 0 0 0 0 0 0 0 0 0 0 0 0 0 0 0 0 0 0 0 0 0 0 0 0 0 0 0 0 0 0 0 0 0 0 0 0 0 0 0 0 0 0
Height
5841 5840 5840 5840 5840 5840 5839 5839 5839 5839 5838 5838 5838 5838 5837 5837 5837 5837 5837 5837 5837 5837 5838 5838 5839 5839 5839 5839 5839 5840 5840 5840 5840 5840 5841 5841 5841 5841 5841 5842 5842 5842 5842
5839 5839 5838 5838 5838 5838 5838 5837 5837 5837 5836 5836 5836 5836 5835 5835 5835 5835 5834 5835 5835 5835 5835 5836 5836 5836 5837 5837 5837 5837 5837 5837 5837 5838 5838 5838 5839 5838 5838 5838 5838 5838 5838
5837 5837 5837 5836 5836 5836 5836 5836 5835 5835 5835 5834 5834 5833 5833 5833 5833 5832 5832 5832 5832 5833 5833 5833 5833 5834 5834 5834 5834 5834 5834 5835 5835 5835 5835 5835 5835 5835 5835 5835 5835 5835 5835
5835 5835 5835 5834 5834 5834 5834 5833 5833 5833 5832 5832 5831 5831 5831 5830 5830 5830 5830 5830 5830 5830 5830 5830 5830 5831 5831 5831 5831 5831 5831 5831 5832 5832 5832 5832 5832 5832 5832 5832 5831 5831 5831
5832 5832 5832 5832 5831 5831 5831 5831 5831 5830 5830 5829 5829 5828 5828 5828 5828 5827 5827 5827 5827 5827 5827 5827 5827 5827 5828 5828 5828 5828 5828 5828 5828 5828 5828 5828 5828 5828 5828 5828 5828 5827 5827
5829 5829 5829 5829 5828 5828 5828 5828 5827 5827 5827 5826 5826 5826 5825 5825 5825 5824 5824 5824 5824 5824 5824 5824 5824 5824 5824 5824 5824 5824 5824 5824 5824 5824 5824 5824 5824 5824 5824 5824 5823 5823 5823
5826 5826 5826 5825 5825 5825 5824 5824 5824 5824 5823 5823 5823 5822 5822 5821 5821 5821 5821 5821 5820 5820 5820 5820 5820 5820 5820 5820 5820 5820 5820 5820 5820 5820 5820 5820 5820 5820 5819 5819 5819 5819 5818
5822 5822 5822 5821 5821 5821 5821 5821 5820 5820 5820 5819 5819 5818 5818 5818 5817 5817 5817 5817 5817 5816 5816 5816 5816 5816 5816 5816 5816 5816 5816 5816 5816 5816 5816 5816 5816 5815 5815 5815 5814 5814 5814
5818 5818 5817 5817 5817 5817 5817 5816 5816 5816 5815 5815 5815 5814 5814 5813 5813 5813 5813 5813 5813 5812 5812 5812 5812 5812 5812 5812 5812 5812 5812 5812 5811 5811 5811 5811 5810 5810 5810 5809 5809 5809 5808
5813 5813 5813 5813 5812 5812 5812 5811 5811 5810 5810 5810 5810 5809 5809 5809 5809 5808 5808 5808 5808 5808 5808 5808 5808 5808 5808 5808 5808 5808 5807 5807 5807 5806 5806 5806 5805 5805 5804 5804 5803 5803 5803
5808 5808 5808 5808 5807 5807 5807 5806 5806 5805 5805 5804 5804 5804 5803 5803 5803 5803 5803 5803 5803 5803 5803 5803 5803 5803 5803 5803 5803 5803 5802 5802 5802 5801 5801 5800 5799 5799 5798 5798 5797 5797 5797
5803 5802 5802 5802 5802 5801 5801 5800 5800 5799 5799 5798 5798 5798 5798 5797 5797 5797 5797 5797 5797 5797 5798 5798 5798 5798 5798 5797 5797 5797 5797 5796 5796 5795 5795 5794 5793 5792 5792 5791 5791 5791 5790
5797 5797 5796 5796 5796 5795 5795 5794 5793 5793 5792 5792 5792 5791 5791 5791 5791 5791 5791 5791 5791 5791 5792 5792 5792 5792 5792 5792 5791 5791 5791 5790 5790 5789 5788 5787 5786 5786 5785 5785 5784 5784 5784
5791 5790 5790 5790 5789 5788 5788 5787 5787 5786 5786 5785 5785 5785 5785 5785 5785 5785 5785 5785 5785 5785 5785 5785 5786 5786 5786 5786 5785 5785 5784 5784 5783 5782 5782 5781 5780 5779 5778 5778 5777 5777 5777
5784 5784 5783 5782 5782 5781 5781 5780 5780 5779 5779 5779 5778 5779 5779 5779 5779 5779 5779 5779 5779 5779 5778 5779 5779 5779 5779 5779 5778 5778 5777 5777 5776 5775 5774 5773 5773 5772 5771 5771 5770 5770 5770
5778 5777 5776 5776 5775 5774 5773 5773 5773 5772 5772 5772 5772 5772 5772 5772 5772 5772 5772 5772 5772 5772 5772 5772 5772 5772 5772 5772 5771 5771 5770 5770 5769 5768 5767 5766 5765 5764 5764 5763 5763 5763 5763
5771 5771 5770 5769 5768 5767 5767 5766 5766 5765 5765 5765 5764 5765 5765 5765 5765 5765 5765 5765 5765 5765 5765 5765 5764 5764 5764 5764 5764 5763 5763 5762 5761 5760 5759 5758 5757 5757 5756 5755 5755 5755 5755
5764 5763 5763 5762 5761 5760 5760 5759 5759 5758 5758 5758 5757 5757 5757 5758 5758 5758 5757 5757 5758 5757 5757 5757 5757 5757 5756 5756 5756 5755 5754 5754 5753 5752 5751 5750 5749 5749 5748 5748 5747 5747 5747
5757 5756 5755 5755 5754 5753 5753 5752 5752 5752 5751 5751 5751 5750 5750 5750 5750 5750 5750 5750 5750 5750 5749 5749 5749 5749 5748 5748 5747 5746 5746 5745 5744 5743 5742 5741 5741 5740 5739 5739 5739 5739 5739
5750 5749 5748 5747 5747 5746 5746 5745 5745 5745 5744 5744 5743 5743 5743 5743 5742 5742 5742 5742 5741 5741 5741 5741 5741 5740 5740 5739 5738 5738 5737 5736 5736 5735 5733 5732 5732 5731 5730 5730 5730 5730 5730
5743 5742 5741 5740 5739 5738 5738 5738 5738 5737 5737 5736 5736 5735 5735 5735 5734 5734 5734 5733 5733 5733 5732 5732 5732 5731 5731 5730 5729 5728 5727 5727 5726 5725 5725 5724 5722 5722 5721 5720 5721 5721 5721
5735 5734 5733 5733 5732 5731 5731 5730 5730 5729 5729 5728 5728 5727 5727 5726 5726 5725 5725 5725 5724 5724 5724 5723 5723 5722 5722 5721 5720 5719 5718 5717 5717 5716 5716 5715 5714 5713 5712 5712 5712 5712 5712
5728 5727 5726 5725 5724 5723 5723 5722 5722 5721 5720 5720 5719 5719 5718 5717 5717 5717 5716 5716 5715 5715 5714 5714 5714 5713 5712 5711 5710 5709 5709 5708 5707 5707 5707 5706 5705 5704 5704 5703 5703 5703 5703
5720 5719 5718 5717 5716 5715 5714 5714 5713 5712 5712 5711 5711 5710 5709 5709 5708 5707 5707 5706 5706 5705 5705 5704 5704 5703 5702 5701 5700 5699 5699 5698 5698 5698 5697 5697 5696 5695 5695 5695 5694 5694 5694
5711 5710 5709 5709 5708 5707 5706 5705 5704 5704 5703 5702 5702 5701 5700 5699 5699 5698 5697 5697 5696 5695 5695 5694 5693 5692 5692 5691 5690 5688 5688 5688 5688 5687 5687 5687 5687 5686 5686 5685 5685 5685 5685
5703 5702 5701 5700 5699 5698 5698 5696 5695 5695 5694 5693 5693 5692 5691 5690 5689 5688 5687 5686 5685 5684 5683 5682 5682 5681 5680 5680 5679 5678 5677 5677 5677 5676 5677 5677 5677 5677 5676 5676 5676 5676 5676
Wind_Speed
6 6 6 6 5 5 6 6 7 7 7 7 7 7 7 7 8 8 8 8 9 9 9 10 9 9 9 9 10 10 10 10 11 11 12 12 12 12 12 12 13 13 14
7 7 7 7 7 6 6 6 7 7 7 7 7 7 8 8 8 8 8 8 9 9 10 10 10 10 10 10 10 10 10 10 11 11 12 12 13 13 13 13 13 14 14
8 8 8 8 7 7 7 7 7 7 7 8 8 8 8 8 8 8 9 9 9 9 10 10 10 10 11 11 11 10 10 11 12 12 12 12 13 13 13 13 13 14 14
9 9 8 8 8 9 9 8 8 8 9 9 9 9 9 9 9 9 9 9 9 10 11 11 11 11 11 12 12 12 12 12 12 12 13 13 13 13 14 14 15 15 15
10 10 10 10 10 10 10 10 10 10 10 10 9 9 10 10 10 10 10 10 10 11 11 11 12 12 12 13 13 13 13 13 13 13 13 14 13 14 14 15 15 16 16
11 11 11 11 11 12 12 11 11 11 11 11 11 10 11 11 11 11 11 11 11 12 12 12 13 13 13 14 14 14 14 14 14 13 14 14 14 14 14 15 15 16 17
12 12 13 13 13 13 13 12 12 12 12 12 12 12 12 12 12 12 13 13 13 13 13 13 13 14 14 14 14 14 15 15 15 14 14 15 15 15 15 15 15 16 16
14 14 14 14 14 14 14 14 14 14 14 13 14 14 14 14 13 14 14 14 14 14 14 13 14 14 15 15 15 15 15 15 15 15 16 16 16 16 16 16 17 17 17
15 15 15 15 15 15 16 16 16 15 15 15 15 15 15 15 15 15 15 15 15 15 15 15 15 15 15 16 15 16 16 16 16 16 17 17 18 18 18 18 19 18 18
16 16 16 16 16 16 17 17 17 17 17 17 17 16 17 17 16 16 16 16 16 16 16 16 16 16 16 16 16 17 17 18 18 18 18 19 19 19 20 20 20 20 19
18 17 17 18 18 18 19 18 18 18 18 18 18 18 18 18 18 18 18 17 17 17 17 17 17 17 18 18 18 19 19 19 20 19 19 20 20 21 21 21 21 21 21
20 20 19 20 20 20 20 20 20 21 20 20 20 20 19 19 19 19 19 18 18 18 18 18 18 18 18 19 20 20 21 21 21 21 21 21 21 22 22 22 22 22 21
21 21 21 21 21 21 21 22 22 22 21 21 20 20 20 20 20 20 20 20 19 19 20 20 19 20 20 20 21 21 21 21 22 22 22 22 22 22 22 22 23 23 22
21 22 22 22 22 22 22 22 22 22 22 21 21 20 20 20 20 20 21 21 21 21 21 21 21 21 21 21 21 22 22 22 22 22 23 23 23 23 23 23 23 23 23
22 23 23 23 23 23 24 23 23 23 22 22 22 22 22 21 22 21 21 21 22 22 22 22 22 22 22 22 23 23 23 23 23 23 24 24 24 24 24 24 24 24 23
23 23 23 23 24 24 24 24 24 24 24 23 23 23 23 23 23 23 23 22 22 22 22 22 23 23 23 24 24 24 24 24 25 25 25 25 25 25 25 25 25 24 24
23 23 23 23 24 24 24 23 23 23 23 23 24 24 24 23 23 23 23 23 23 23 24 24 24 25 25 25 25 25 26 26 26 26 26 26 26 26 26 26 26 26 26
24 24 24 24 24 24 24 23 23 23 23 23 23 23 23 23 23 23 24 24 24 25 25 25 25 26 26 26 27 27 27 27 27 27 28 28 28 28 27 27 28 28 28
24 24 24 25 25 25 25 24 24 24 24 24 24 24 24 24 24 25 25 26 26 26 26 26 27 27 27 27 28 28 28 28 28 29 29 29 29 29 29 29 29 29 29
24 24 24 25 25 25 25 25 25 25 25 25 25 26 25 25 25 26 27 27 28 28 27 28 28 28 28 28 29 29 30 29 29 29 30 30 30 31 30 30 29 29 29
25 25 25 25 25 25 25 25 25 26 26 26 27 27 27 27 26 26 27 28 28 28 28 28 29 29 29 29 29 30 30 30 30 30 29 29 30 30 30 30 29 29 29
26 26 26 26 25 25 25 25 26 27 27 27 27 28 28 28 28 28 27 28 29 29 29 29 29 30 30 30 30 30 29 29 29 29 29 29 29 29 29 29 29 29 29
26 26 26 26 26 26 26 26 27 28 27 28 28 28 28 28 28 28 28 28 29 29 30 30 30 30 30 31 30 30 30 30 30 30 29 29 29 29 29 29 29 30 30
28 27 27 27 27 27 27 27 28 28 29 29 29 29 29 29 29 29 29 29 30 31 31 31 31 31 31 31 31 31 32 32 32 31 30 30 30 30 30 30 30 30 30
28 28 28 27 27 28 28 29 29 29 29 29 29 30 30 31 31 31 31 32 31 31 32 32 32 32 32 32 32 33 33 32 32 32 31 32 31 30 30 30 30 30 30
29 29 28 28 27 28 29 29 30 29 30 30 31 31 31 31 31 32 32 33 33 32 33 33 33 33 32 33 33 33 34 34 34 33 33 32 32 31 30 30 31 31 31
Wind_Direction
275 272 274 280 284 286 286 288 289 288 286 285 285 281 276 273 271 270 266 262 258 256 254 254 255 256 257 259 261 264 264 263 264 264 264 264 265 268 270 270 271 271 271
272 268 268 272 280 284 284 287 288 285 283 282 285 281 278 276 276 272 269 267 262 258 255 256 259 258 259 261 265 264 262 264 263 265 267 267 266 268 270 270 271 271 272
270 268 266 270 271 278 283 282 284 280 281 281 282 286 283 278 277 273 269 268 264 259 257 258 259 261 262 264 264 265 265 265 268 268 269 268 269 269 271 272 273 274 273
267 266 268 266 264 270 277 278 280 278 280 282 283 284 284 276 274 274 271 269 268 263 261 262 263 263 264 265 266 265 266 267 269 269 268 270 270 270 272 274 274 274 274
267 265 266 266 264 267 271 274 276 276 278 280 282 282 280 276 275 274 272 269 267 265 264 266 267 266 264 264 265 264 266 269 270 271 271 272 273 276 274 275 275 274 274
264 265 267 269 268 267 268 271 274 273 274 277 279 280 280 278 277 275 273 272 270 268 267 267 267 267 266 265 265 265 268 270 271 272 273 274 276 279 278 276 275 275 275
265 266 268 270 270 268 267 269 273 273 272 274 276 277 277 277 276 275 274 275 273 272 270 268 266 267 266 265 266 268 269 269 270 272 274 276 278 279 281 281 280 278 276
266 267 268 268 268 267 269 269 271 274 273 276 277 276 275 275 275 274 275 276 275 274 270 268 268 268 268 268 269 270 272 270 272 273 275 275 276 277 280 281 282 281 278
266 269 269 267 267 266 269 270 269 271 272 275 278 276 274 274 273 274 274 275 274 273 270 268 270 269 268 269 269 271 274 274 275 276 276 276 277 278 280 280 281 281 281
267 268 268 267 267 267 267 268 267 268 270 272 275 277 274 272 272 272 271 272 273 272 269 268 269 270 270 269 270 272 274 276 276 276 278 279 278 278 279 280 279 281 280
271 272 272 268 268 267 267 266 266 267 269 270 272 273 273 272 271 270 270 269 270 269 269 270 270 270 270 269 270 273 275 276 277 278 279 280 280 279 279 279 279 279 277
271 270 273 273 271 270 268 268 268 268 268 267 268 269 268 270 271 270 269 269 268 267 269 271 272 271 272 271 271 272 273 275 277 277 278 279 280 279 279 279 278 278 276
273 271 273 272 272 273 270 269 268 269 268 268 267 266 266 267 269 270 268 267 267 267 268 269 270 271 272 273 272 272 272 274 275 277 278 278 278 278 277 277 276 275 274
274 274 273 273 272 272 271 272 270 269 268 265 265 266 267 267 267 267 268 268 267 267 267 268 270 271 272 274 273 272 272 274 275 276 277 277 276 276 275 274 274 273 272
275 275 275 274 274 274 272 272 271 270 270 268 266 265 266 266 267 268 268 268 268 267 267 268 269 268 270 272 274 274 274 274 275 276 277 277 275 274 274 273 272 271 270
275 275 275 275 275 275 273 272 273 271 271 270 266 265 266 267 267 267 267 268 268 268 267 268 268 268 269 271 273 274 274 275 276 276 276 276 275 275 273 273 272 271 270
278 275 275 276 276 274 273 272 272 271 270 269 265 264 264 266 266 267 266 267 268 268 268 268 268 269 270 271 272 273 275 276 276 276 276 275 275 275 274 273 272 271 270
278 276 276 277 276 274 273 272 272 271 271 271 269 268 266 265 267 268 267 266 268 269 269 270 270 269 270 270 271 272 274 275 275 276 276 275 274 275 275 273 272 271 271
278 278 277 278 277 275 272 270 271 272 271 271 270 269 268 267 268 270 269 268 268 268 269 270 271 272 271 271 272 273 274 274 275 275 276 276 275 275 274 273 273 272 271
279 279 279 279 277 274 272 271 270 271 272 272 272 272 270 267 267 269 270 269 268 268 269 271 271 272 272 272 272 273 274 274 275 276 277 276 275 276 275 273 272 271 271
279 279 279 279 278 275 272 270 270 270 270 272 273 273 272 271 270 269 269 269 269 269 270 271 272 273 273 273 274 274 274 274 275 276 277 277 276 277 276 274 273 272 271
280 280 280 279 278 276 274 271 270 270 270 272 272 274 273 273 272 270 270 271 271 271 271 271 272 272 273 274 274 274 274 273 275 277 277 276 276 276 276 275 274 273 272
281 281 281 279 278 277 275 273 272 271 273 272 272 273 274 274 274 273 271 271 271 273 273 273 273 273 274 273 273 272 272 273 274 275 276 276 275 275 275 274 273 273 272
280 281 281 279 278 277 275 276 275 274 273 274 275 275 275 275 275 275 274 272 272 272 274 274 274 274 274 273 272 271 271 271 272 273 274 274 275 275 274 273 274 274 272
279 280 280 280 278 277 277 278 278 278 276 275 275 275 276 276 276 275 275 274 274 273 274 274 275 275 274 273 272 272 272 271 271 271 271 272 273 273 272 272 273 274 273
278 280 280 280 280 278 278 279 280 279 277 276 276 276 276 276 277 277 276 275 274 274 274 274 274 275 275 273 272 272 272 272 271 270 270 271 271 270 271 270 271 271 272